Time,TemperatureF,DewpointF,PressureIn,WindDirection,WindDirectionDegrees,WindSpeedMPH,WindSpeedGustMPH,Humidity,HourlyPrecipIn,Conditions,Clouds,dailyrainin,SoftwareType,DateUTC
2013-06-09 00:00:00,72.2,70.7,30.06,SSW,209,0.0,1.0,95,0.00,,,1.29,VWS V14.00,2013-06-09 04:00:00,
2013-06-09 00:01:00,71.7,70.5,30.09,SSW,209,0.0,0.0,96,0.00,,,1.29,VWS V14.00,2013-06-09 04:01:00,
2013-06-09 00:02:00,71.8,70.6,30.09,SSW,209,0.0,0.0,96,0.00,,,0.00,VWS V14.00,2013-06-09 04:02:00,
2013-06-09 00:03:00,71.8,70.6,30.09,SSW,209,0.0,0.0,96,0.00,,,0.00,VWS V14.00,2013-06-09 04:03:00,
2013-06-09 00:06:00,71.8,70.6,30.09,SSW,209,0.0,0.0,96,0.00,,,0.00,VWS V14.00,2013-06-09 04:06:00,
2013-06-09 00:11:00,71.7,70.5,30.09,SSW,209,0.0,0.0,96,0.00,,,0.00,VWS V14.00,2013-06-09 04:11:00,
2013-06-09 00:16:00,71.7,70.5,30.09,SSW,209,0.0,0.0,96,0.00,,,0.00,VWS V14.00,2013-06-09 04:16:00,
2013-06-09 00:22:00,71.6,70.4,30.09,SSW,209,0.0,0.0,96,0.00,,,0.00,VWS V14.00,2013-06-09 04:22:00,
2013-06-09 00:27:00,71.7,70.5,30.09,SSW,209,0.0,0.0,96,0.00,,,0.00,VWS V14.00,2013-06-09 04:27:00,
2013-06-09 00:30:00,71.9,70.7,30.07,SSW,209,0.0,0.0,96,0.00,,,1.29,VWS V14.00,2013-06-09 04:30:00,
2013-06-09 00:32:00,71.8,70.6,30.09,SSW,209,0.0,0.0,96,0.00,,,0.00,VWS V14.00,2013-06-09 04:32:00,
2013-06-09 00:37:00,71.9,70.7,30.09,NNW,346,0.0,2.0,96,0.01,,,0.01,VWS V14.00,2013-06-09 04:37:00,
2013-06-09 00:42:00,72.0,70.8,30.09,NNW,347,0.0,2.0,96,0.01,,,0.01,VWS V14.00,2013-06-09 04:42:00,
2013-06-09 00:47:00,72.1,70.9,30.09,NNW,346,0.0,2.0,96,0.01,,,0.01,VWS V14.00,2013-06-09 04:47:00,
2013-06-09 00:52:00,72.1,70.9,30.09,NNW,347,0.0,2.0,96,0.01,,,0.01,VWS V14.00,2013-06-09 04:52:00,
2013-06-09 00:57:00,72.1,70.9,30.09,NNW,347,0.0,2.0,96,0.01,,,0.01,VWS V14.00,2013-06-09 04:57:00,
2013-06-09 01:00:00,71.8,70.6,30.09,SSW,209,0.0,0.0,96,0.00,,,0.00,VWS V14.00,2013-06-09 05:00:00,
2013-06-09 01:02:00,72.1,70.9,30.09,NNW,347,0.0,0.0,96,0.01,,,0.01,VWS V14.00,2013-06-09 05:02:00,
2013-06-09 01:07:00,72.1,70.9,30.09,NNW,347,0.0,0.0,96,0.01,,,0.01,VWS V14.00,2013-06-09 05:07:00,
2013-06-09 01:13:00,72.2,71.0,30.09,NNW,347,0.0,0.0,96,0.01,,,0.01,VWS V14.00,2013-06-09 05:13:00,
2013-06-09 01:18:00,72.1,70.9,30.09,NNW,346,0.0,0.0,96,0.01,,,0.01,VWS V14.00,2013-06-09 05:18:00,
2013-06-09 01:23:00,72.1,70.9,30.09,NNW,347,0.0,0.0,96,0.01,,,0.01,VWS V14.00,2013-06-09 05:23:00,
2013-06-09 01:28:00,72.0,70.8,30.10,NNW,347,0.0,0.0,96,0.01,,,0.01,VWS V14.00,2013-06-09 05:28:00,
2013-06-09 01:30:00,71.8,70.6,30.09,SSW,209,0.0,0.0,96,0.00,,,0.00,VWS V14.00,2013-06-09 05:30:00,
2013-06-09 01:33:00,72.1,70.9,30.09,NNW,347,0.0,0.0,96,0.01,,,0.01,VWS V14.00,2013-06-09 05:33:00,
2013-06-09 01:38:00,72.1,70.9,30.09,NNW,347,0.0,0.0,96,0.01,,,0.01,VWS V14.00,2013-06-09 05:38:00,
2013-06-09 01:43:00,72.2,71.0,30.09,NNW,347,0.0,0.0,96,0.01,,,0.01,VWS V14.00,2013-06-09 05:43:00,
2013-06-09 01:48:00,72.2,71.0,30.09,NNW,347,0.0,0.0,96,0.01,,,0.01,VWS V14.00,2013-06-09 05:48:00,
2013-06-09 01:53:00,72.2,71.0,30.09,NNW,346,0.0,0.0,96,0.01,,,0.01,VWS V14.00,2013-06-09 05:53:00,
2013-06-09 01:58:00,72.3,71.1,30.10,NNW,347,0.0,0.0,96,0.01,,,0.01,VWS V14.00,2013-06-09 05:58:00,
2013-06-09 02:00:00,72.1,70.9,30.09,NNW,347,0.0,2.0,96,0.01,,,0.01,VWS V14.00,2013-06-09 06:00:00,
2013-06-09 02:04:00,72.3,71.1,30.09,NNW,346,0.0,0.0,96,0.00,,,0.01,VWS V14.00,2013-06-09 06:04:00,
2013-06-09 02:09:00,72.2,71.0,30.09,NNW,347,0.0,0.0,96,0.00,,,0.01,VWS V14.00,2013-06-09 06:09:00,
2013-06-09 02:14:00,72.2,71.0,30.09,NNW,347,0.0,0.0,96,0.00,,,0.01,VWS V14.00,2013-06-09 06:14:00,
2013-06-09 02:19:00,72.2,71.0,30.09,NNW,347,0.0,0.0,96,0.00,,,0.01,VWS V14.00,2013-06-09 06:19:00,
2013-06-09 02:24:00,72.2,71.0,30.09,NNW,347,0.0,0.0,96,0.00,,,0.01,VWS V14.00,2013-06-09 06:24:00,
2013-06-09 02:29:00,72.1,70.9,30.09,NNW,347,0.0,0.0,96,0.00,,,0.01,VWS V14.00,2013-06-09 06:29:00,
2013-06-09 02:30:00,72.1,70.9,30.09,NNW,347,0.0,0.0,96,0.01,,,0.01,VWS V14.00,2013-06-09 06:30:00,
2013-06-09 02:34:00,72.1,70.9,30.09,NNW,347,0.0,0.0,96,0.00,,,0.01,VWS V14.00,2013-06-09 06:34:00,
2013-06-09 02:39:00,72.0,70.8,30.09,NNW,347,0.0,0.0,96,0.00,,,0.01,VWS V14.00,2013-06-09 06:39:00,
2013-06-09 02:44:00,71.9,70.7,30.09,NNW,346,0.0,0.0,96,0.00,,,0.01,VWS V14.00,2013-06-09 06:44:00,
2013-06-09 02:49:00,71.8,70.6,30.09,NNW,347,0.0,0.0,96,0.00,,,0.01,VWS V14.00,2013-06-09 06:49:00,
2013-06-09 02:54:00,71.8,70.6,30.08,NNW,347,0.0,0.0,96,0.00,,,0.01,VWS V14.00,2013-06-09 06:54:00,
2013-06-09 03:00:00,71.7,70.5,30.08,NNW,346,0.0,0.0,96,0.00,,,0.01,VWS V14.00,2013-06-09 07:00:00,
2013-06-09 03:05:00,71.6,70.4,30.08,NNW,346,0.0,0.0,96,0.00,,,0.01,VWS V14.00,2013-06-09 07:05:00,
2013-06-09 03:10:00,71.6,70.4,30.08,NNW,346,0.0,0.0,96,0.00,,,0.01,VWS V14.00,2013-06-09 07:10:00,
2013-06-09 03:15:00,71.5,70.3,30.08,NNW,347,0.0,0.0,96,0.00,,,0.01,VWS V14.00,2013-06-09 07:15:00,
2013-06-09 03:20:00,71.3,70.1,30.08,NNW,346,0.0,0.0,96,0.00,,,0.01,VWS V14.00,2013-06-09 07:20:00,
2013-06-09 03:25:00,71.3,70.1,30.08,NNW,346,0.0,0.0,96,0.00,,,0.01,VWS V14.00,2013-06-09 07:25:00,
2013-06-09 03:30:00,71.3,70.1,30.08,NNW,347,0.0,0.0,96,0.00,,,0.01,VWS V14.00,2013-06-09 07:30:00,
2013-06-09 03:35:00,71.3,70.1,30.08,NNW,346,0.0,0.0,96,0.00,,,0.01,VWS V14.00,2013-06-09 07:35:00,
2013-06-09 03:40:00,71.3,70.1,30.08,NNW,347,0.0,0.0,96,0.00,,,0.01,VWS V14.00,2013-06-09 07:40:00,
2013-06-09 03:45:00,71.3,70.1,30.08,NNW,346,0.0,0.0,96,0.00,,,0.01,VWS V14.00,2013-06-09 07:45:00,
2013-06-09 03:51:00,71.3,70.1,30.08,NNW,346,0.0,0.0,96,0.00,,,0.01,VWS V14.00,2013-06-09 07:51:00,
2013-06-09 03:56:00,71.3,70.1,30.08,NNW,347,0.0,0.0,96,0.00,,,0.01,VWS V14.00,2013-06-09 07:56:00,
2013-06-09 04:00:00,71.7,70.5,30.08,NNW,347,0.0,0.0,96,0.00,,,0.01,VWS V14.00,2013-06-09 08:00:00,
2013-06-09 04:01:00,71.1,69.9,30.08,NNW,346,0.0,0.0,96,0.00,,,0.01,VWS V14.00,2013-06-09 08:01:00,
2013-06-09 04:06:00,71.1,69.9,30.08,NNW,347,0.0,0.0,96,0.00,,,0.01,VWS V14.00,2013-06-09 08:06:00,
2013-06-09 04:11:00,71.0,69.8,30.08,NNW,347,0.0,0.0,96,0.00,,,0.01,VWS V14.00,2013-06-09 08:11:00,
2013-06-09 04:16:00,70.9,69.7,30.08,NNW,347,0.0,0.0,96,0.00,,,0.01,VWS V14.00,2013-06-09 08:16:00,
2013-06-09 04:22:00,70.8,69.6,30.08,NNW,346,0.0,0.0,96,0.00,,,0.01,VWS V14.00,2013-06-09 08:22:00,
2013-06-09 04:27:00,70.8,69.6,30.08,NNW,346,0.0,0.0,96,0.00,,,0.01,VWS V14.00,2013-06-09 08:27:00,
2013-06-09 04:30:00,71.3,70.1,30.08,NNW,347,0.0,0.0,96,0.00,,,0.01,VWS V14.00,2013-06-09 08:30:00,
2013-06-09 04:32:00,70.8,69.6,30.07,NNW,347,0.0,0.0,96,0.00,,,0.01,VWS V14.00,2013-06-09 08:32:00,
2013-06-09 04:37:00,70.7,69.5,30.07,NNW,347,0.0,0.0,96,0.00,,,0.01,VWS V14.00,2013-06-09 08:37:00,
2013-06-09 04:42:00,70.6,69.4,30.08,NNW,347,0.0,0.0,96,0.00,,,0.01,VWS V14.00,2013-06-09 08:42:00,
2013-06-09 04:47:00,70.6,69.4,30.08,NNW,347,0.0,0.0,96,0.00,,,0.01,VWS V14.00,2013-06-09 08:47:00,
2013-06-09 04:52:00,70.6,69.4,30.08,NNW,347,0.0,0.0,96,0.00,,,0.01,VWS V14.00,2013-06-09 08:52:00,
2013-06-09 04:57:00,70.6,69.4,30.08,NNW,347,0.0,0.0,96,0.00,,,0.01,VWS V14.00,2013-06-09 08:57:00,
2013-06-09 05:00:00,71.1,69.9,30.08,NNW,346,0.0,0.0,96,0.00,,,0.01,VWS V14.00,2013-06-09 09:00:00,
2013-06-09 05:02:00,70.6,69.4,30.08,NNW,347,0.0,0.0,96,0.00,,,0.01,VWS V14.00,2013-06-09 09:02:00,
2013-06-09 05:07:00,70.6,69.4,30.08,NNW,347,0.0,0.0,96,0.00,,,0.01,VWS V14.00,2013-06-09 09:07:00,
2013-06-09 05:12:00,70.6,69.4,30.08,NNW,347,0.0,0.0,96,0.00,,,0.01,VWS V14.00,2013-06-09 09:12:00,
2013-06-09 05:17:00,70.5,69.3,30.08,NNW,347,0.0,0.0,96,0.00,,,0.01,VWS V14.00,2013-06-09 09:17:00,
2013-06-09 05:23:00,70.5,69.3,30.08,NNW,347,0.0,0.0,96,0.00,,,0.01,VWS V14.00,2013-06-09 09:23:00,
2013-06-09 05:28:00,70.6,69.4,30.08,NNW,346,0.0,0.0,96,0.00,,,0.01,VWS V14.00,2013-06-09 09:28:00,
2013-06-09 05:30:00,70.8,69.6,30.08,NNW,347,0.0,0.0,96,0.00,,,0.01,VWS V14.00,2013-06-09 09:30:00,
2013-06-09 05:33:00,70.6,69.4,30.08,NNW,347,0.0,0.0,96,0.00,,,0.01,VWS V14.00,2013-06-09 09:33:00,
2013-06-09 05:38:00,70.6,69.4,30.08,NNW,346,0.0,0.0,96,0.00,,,0.01,VWS V14.00,2013-06-09 09:38:00,
2013-06-09 05:43:00,70.5,69.3,30.08,NNW,347,0.0,0.0,96,0.00,,,0.01,VWS V14.00,2013-06-09 09:43:00,
2013-06-09 05:48:00,70.4,69.2,30.08,NNW,346,0.0,0.0,96,0.00,,,0.01,VWS V14.00,2013-06-09 09:48:00,
2013-06-09 05:53:00,70.3,69.1,30.08,NNW,347,0.0,0.0,96,0.00,,,0.01,VWS V14.00,2013-06-09 09:53:00,
2013-06-09 05:58:00,70.3,69.1,30.08,NNW,347,0.0,0.0,96,0.00,,,0.01,VWS V14.00,2013-06-09 09:58:00,
2013-06-09 06:00:00,70.6,69.4,30.08,NNW,347,0.0,0.0,96,0.00,,,0.01,VWS V14.00,2013-06-09 10:00:00,
2013-06-09 06:03:00,70.3,69.1,30.08,NNW,347,0.0,0.0,96,0.00,,,0.01,VWS V14.00,2013-06-09 10:03:00,
2013-06-09 06:08:00,70.2,69.0,30.08,NNW,346,0.0,0.0,96,0.00,,,0.01,VWS V14.00,2013-06-09 10:08:00,
2013-06-09 06:13:00,70.1,68.9,30.08,NNW,347,0.0,0.0,96,0.00,,,0.01,VWS V14.00,2013-06-09 10:13:00,
2013-06-09 06:18:00,70.0,68.8,30.08,NNW,346,0.0,0.0,96,0.00,,,0.01,VWS V14.00,2013-06-09 10:18:00,
2013-06-09 06:23:00,70.0,68.8,30.08,NNW,347,0.0,0.0,96,0.00,,,0.01,VWS V14.00,2013-06-09 10:23:00,
2013-06-09 06:29:00,70.1,68.9,30.09,NNW,347,0.0,0.0,96,0.00,,,0.01,VWS V14.00,2013-06-09 10:29:00,
2013-06-09 06:30:00,70.6,69.4,30.08,NNW,347,0.0,0.0,96,0.00,,,0.01,VWS V14.00,2013-06-09 10:30:00,
2013-06-09 06:34:00,70.1,68.9,30.09,NNW,347,0.0,0.0,96,0.00,,,0.01,VWS V14.00,2013-06-09 10:34:00,
2013-06-09 06:39:00,70.1,68.9,30.09,NNW,347,0.0,0.0,96,0.00,,,0.01,VWS V14.00,2013-06-09 10:39:00,
2013-06-09 06:44:00,70.1,68.9,30.09,NNW,347,0.0,0.0,96,0.00,,,0.01,VWS V14.00,2013-06-09 10:44:00,
2013-06-09 06:49:00,70.1,68.9,30.09,NNW,347,0.0,0.0,96,0.00,,,0.01,VWS V14.00,2013-06-09 10:49:00,
2013-06-09 06:54:00,70.2,69.0,30.10,NNW,347,0.0,0.0,96,0.00,,,0.01,VWS V14.00,2013-06-09 10:54:00,
2013-06-09 06:59:00,70.3,69.1,30.10,NNW,346,0.0,0.0,96,0.00,,,0.01,VWS V14.00,2013-06-09 10:59:00,
2013-06-09 07:00:00,70.3,69.1,30.08,NNW,347,0.0,0.0,96,0.00,,,0.01,VWS V14.00,2013-06-09 11:00:00,
2013-06-09 07:04:00,70.5,69.3,30.10,NNW,346,0.0,0.0,96,0.00,,,0.01,VWS V14.00,2013-06-09 11:04:00,
2013-06-09 07:09:00,70.7,69.5,30.10,NNW,347,0.0,0.0,96,0.00,,,0.01,VWS V14.00,2013-06-09 11:09:00,
2013-06-09 07:14:00,71.0,69.8,30.10,NNW,346,0.0,0.0,96,0.00,,,0.01,VWS V14.00,2013-06-09 11:14:00,
2013-06-09 07:20:00,71.3,70.1,30.10,NNW,347,0.0,0.0,96,0.00,,,0.01,VWS V14.00,2013-06-09 11:20:00,
2013-06-09 07:25:00,71.4,70.2,30.10,NNW,347,0.0,0.0,96,0.00,,,0.01,VWS V14.00,2013-06-09 11:25:00,
2013-06-09 07:30:00,71.7,70.5,30.10,NNW,347,0.0,0.0,96,0.00,,,0.01,VWS V14.00,2013-06-09 11:30:00,
2013-06-09 07:35:00,71.9,70.7,30.11,NNW,347,0.0,0.0,96,0.00,,,0.01,VWS V14.00,2013-06-09 11:35:00,
2013-06-09 07:40:00,72.1,70.9,30.11,NNW,347,0.0,0.0,96,0.00,,,0.01,VWS V14.00,2013-06-09 11:40:00,
2013-06-09 07:45:00,72.3,71.1,30.11,NNW,346,0.0,0.0,96,0.00,,,0.01,VWS V14.00,2013-06-09 11:45:00,
2013-06-09 07:50:00,72.6,71.4,30.10,NNW,347,0.0,0.0,96,0.00,,,0.01,VWS V14.00,2013-06-09 11:50:00,
2013-06-09 07:55:00,72.8,71.6,30.11,NNW,347,0.0,0.0,96,0.00,,,0.01,VWS V14.00,2013-06-09 11:55:00,
2013-06-09 08:00:00,73.0,71.8,30.11,NNW,347,0.0,0.0,96,0.00,,,0.01,VWS V14.00,2013-06-09 12:00:00,
2013-06-09 08:05:00,73.1,71.9,30.11,NNW,346,0.0,0.0,96,0.00,,,0.01,VWS V14.00,2013-06-09 12:05:00,
2013-06-09 08:10:00,73.1,71.9,30.11,NNW,347,0.0,0.0,96,0.00,,,0.01,VWS V14.00,2013-06-09 12:10:00,
2013-06-09 08:15:00,73.2,72.0,30.11,NNW,346,0.0,0.0,96,0.00,,,0.01,VWS V14.00,2013-06-09 12:15:00,
2013-06-09 08:20:00,73.3,72.1,30.11,NNW,347,0.0,0.0,96,0.00,,,0.01,VWS V14.00,2013-06-09 12:20:00,
2013-06-09 08:25:00,73.3,72.1,30.12,NNW,347,0.0,0.0,96,0.00,,,0.01,VWS V14.00,2013-06-09 12:25:00,
2013-06-09 08:30:00,73.4,72.2,30.11,NNW,347,0.0,0.0,96,0.00,,,0.01,VWS V14.00,2013-06-09 12:30:00,
2013-06-09 08:36:00,73.6,72.4,30.11,NNW,346,0.0,0.0,96,0.00,,,0.01,VWS V14.00,2013-06-09 12:36:00,
2013-06-09 08:41:00,73.9,72.7,30.11,NNW,346,0.0,0.0,96,0.00,,,0.01,VWS V14.00,2013-06-09 12:41:00,
2013-06-09 08:46:00,74.2,73.0,30.11,NNW,347,0.0,0.0,96,0.00,,,0.01,VWS V14.00,2013-06-09 12:46:00,
2013-06-09 08:51:00,74.4,73.2,30.11,NNW,346,1.0,1.0,96,0.00,,,0.01,VWS V14.00,2013-06-09 12:51:00,
2013-06-09 08:56:00,74.5,73.3,30.11,NNW,347,0.0,1.0,96,0.00,,,0.01,VWS V14.00,2013-06-09 12:56:00,
2013-06-09 09:00:00,73.0,71.8,30.11,NNW,347,0.0,0.0,96,0.00,,,0.01,VWS V14.00,2013-06-09 13:00:00,
2013-06-09 09:01:00,74.6,73.4,30.11,NNW,347,0.0,1.0,96,0.00,,,0.01,VWS V14.00,2013-06-09 13:01:00,
2013-06-09 09:06:00,74.7,73.5,30.11,NNW,347,0.0,0.0,96,0.00,,,0.01,VWS V14.00,2013-06-09 13:06:00,
2013-06-09 09:12:00,74.9,73.7,30.11,NNW,346,0.0,0.0,96,0.00,,,0.01,VWS V14.00,2013-06-09 13:12:00,
2013-06-09 09:17:00,75.1,73.9,30.11,NNW,347,0.0,3.0,96,0.00,,,0.01,VWS V14.00,2013-06-09 13:17:00,
2013-06-09 09:22:00,75.2,74.0,30.11,South,172,0.0,3.0,96,0.00,,,0.01,VWS V14.00,2013-06-09 13:22:00,
2013-06-09 09:27:00,75.3,74.1,30.11,South,173,0.0,3.0,96,0.00,,,0.01,VWS V14.00,2013-06-09 13:27:00,
2013-06-09 09:30:00,73.4,72.2,30.11,NNW,347,0.0,0.0,96,0.00,,,0.01,VWS V14.00,2013-06-09 13:30:00,
2013-06-09 09:32:00,75.6,74.4,30.11,South,173,0.0,0.0,96,0.00,,,0.01,VWS V14.00,2013-06-09 13:32:00,
2013-06-09 09:37:00,75.8,74.6,30.11,SSW,205,0.0,2.0,96,0.00,,,0.01,VWS V14.00,2013-06-09 13:37:00,
2013-06-09 09:42:00,76.2,75.0,30.11,SSW,202,0.0,2.0,96,0.00,,,0.01,VWS V14.00,2013-06-09 13:42:00,
2013-06-09 09:48:00,76.4,75.2,30.11,SW,219,0.0,2.0,96,0.00,,,0.01,VWS V14.00,2013-06-09 13:48:00,
2013-06-09 09:53:00,76.7,75.5,30.11,SSW,212,0.0,4.0,96,0.00,,,0.01,VWS V14.00,2013-06-09 13:53:00,
2013-06-09 09:58:00,77.0,75.8,30.11,South,169,0.0,4.0,96,0.00,,,0.01,VWS V14.00,2013-06-09 13:58:00,
2013-06-09 10:00:00,74.6,73.4,30.11,NNW,347,0.0,1.0,96,0.00,,,0.01,VWS V14.00,2013-06-09 14:00:00,
2013-06-09 10:03:00,77.4,76.2,30.11,WSW,246,0.0,0.0,96,0.00,,,0.01,VWS V14.00,2013-06-09 14:03:00,
2013-06-09 10:08:00,77.6,76.4,30.11,SSW,193,0.0,4.0,96,0.00,,,0.01,VWS V14.00,2013-06-09 14:08:00,
2013-06-09 10:13:00,78.0,76.8,30.11,SW,236,0.0,5.0,96,0.00,,,0.01,VWS V14.00,2013-06-09 14:13:00,
2013-06-09 10:18:00,78.4,76.8,30.11,SSW,196,0.0,5.0,95,0.00,,,0.01,VWS V14.00,2013-06-09 14:18:00,
2013-06-09 10:23:00,78.7,77.2,30.10,SW,230,0.0,5.0,95,0.00,,,0.01,VWS V14.00,2013-06-09 14:23:00,
2013-06-09 10:28:00,79.4,77.2,30.10,South,176,0.0,6.0,93,0.00,,,0.01,VWS V14.00,2013-06-09 14:28:00,
2013-06-09 10:30:00,75.5,74.3,30.11,South,173,0.0,3.0,96,0.00,,,0.01,VWS V14.00,2013-06-09 14:30:00,
2013-06-09 10:34:00,79.9,77.0,30.10,SSW,194,1.0,1.0,91,0.00,,,0.01,VWS V14.00,2013-06-09 14:34:00,
2013-06-09 10:39:00,80.1,76.2,30.10,South,169,0.0,4.0,88,0.00,,,0.01,VWS V14.00,2013-06-09 14:39:00,
2013-06-09 10:44:00,80.4,75.8,30.10,South,178,0.0,4.0,86,0.00,,,0.01,VWS V14.00,2013-06-09 14:44:00,
2013-06-09 10:49:00,81.0,76.4,30.10,SSE,168,0.0,4.0,86,0.00,,,0.01,VWS V14.00,2013-06-09 14:49:00,
2013-06-09 10:54:00,81.6,76.3,30.10,South,182,0.0,4.0,84,0.00,,,0.01,VWS V14.00,2013-06-09 14:54:00,
2013-06-09 10:59:00,82.6,76.9,30.10,SSW,212,0.0,4.0,83,0.00,,,0.01,VWS V14.00,2013-06-09 14:59:00,
2013-06-09 11:00:00,77.3,76.1,30.11,WSW,246,0.0,4.0,96,0.00,,,0.01,VWS V14.00,2013-06-09 15:00:00,
2013-06-09 11:04:00,83.4,77.0,30.10,SSW,206,0.0,1.0,81,0.00,,,0.01,VWS V14.00,2013-06-09 15:04:00,
2013-06-09 11:09:00,84.0,76.8,30.11,South,173,0.0,4.0,79,0.00,,,0.01,VWS V14.00,2013-06-09 15:09:00,
2013-06-09 11:14:00,84.0,76.8,30.11,SSE,163,0.0,4.0,79,0.00,,,0.01,VWS V14.00,2013-06-09 15:14:00,
2013-06-09 11:19:00,84.0,76.4,30.11,SSE,160,1.0,4.0,78,0.00,,,0.01,VWS V14.00,2013-06-09 15:19:00,
2013-06-09 11:25:00,83.9,76.3,30.11,SW,235,0.0,4.0,78,0.00,,,0.01,VWS V14.00,2013-06-09 15:25:00,
2013-06-09 11:30:00,83.8,76.2,30.11,SW,230,0.0,4.0,78,0.00,,,0.01,VWS V14.00,2013-06-09 15:30:00,
2013-06-09 11:35:00,83.4,75.4,30.11,SSE,148,0.0,5.0,77,0.00,,,0.01,VWS V14.00,2013-06-09 15:35:00,
2013-06-09 11:40:00,83.0,75.4,30.11,South,188,0.0,5.0,78,0.00,,,0.01,VWS V14.00,2013-06-09 15:40:00,
2013-06-09 11:45:00,83.7,76.5,30.11,South,171,0.0,5.0,79,0.00,,,0.01,VWS V14.00,2013-06-09 15:45:00,
2013-06-09 11:50:00,84.7,77.1,30.11,South,171,0.0,5.0,78,0.00,,,0.01,VWS V14.00,2013-06-09 15:50:00,
2013-06-09 11:55:00,85.1,75.9,30.11,SSW,196,0.0,5.0,74,0.00,,,0.01,VWS V14.00,2013-06-09 15:55:00,
2013-06-09 12:00:00,85.3,76.1,30.11,South,184,0.0,5.0,74,0.00,,,0.01,VWS V14.00,2013-06-09 16:00:00,
2013-06-09 12:05:00,85.6,76.4,30.11,South,171,0.0,0.0,74,0.00,,,0.01,VWS V14.00,2013-06-09 16:05:00,
2013-06-09 12:10:00,86.3,77.8,30.11,SW,236,0.0,0.0,76,0.00,,,0.01,VWS V14.00,2013-06-09 16:10:00,
2013-06-09 12:15:00,86.7,76.6,30.11,SW,219,0.0,1.0,72,0.00,,,0.01,VWS V14.00,2013-06-09 16:15:00,
2013-06-09 12:21:00,86.9,76.4,30.11,South,186,0.0,2.0,71,0.00,,,0.01,VWS V14.00,2013-06-09 16:21:00,
2013-06-09 12:26:00,86.9,76.8,30.11,South,186,0.0,4.0,72,0.00,,,0.01,VWS V14.00,2013-06-09 16:26:00,
2013-06-09 12:30:00,83.7,75.7,30.11,SW,215,0.0,4.0,77,0.00,,,0.01,VWS V14.00,2013-06-09 16:30:00,
2013-06-09 12:31:00,87.3,76.8,30.11,South,171,0.0,4.0,71,0.00,,,0.01,VWS V14.00,2013-06-09 16:31:00,
2013-06-09 12:36:00,87.9,76.5,30.11,SW,232,0.0,0.0,69,0.00,,,0.01,VWS V14.00,2013-06-09 16:36:00,
2013-06-09 12:41:00,88.2,76.3,30.11,SSW,205,0.0,0.0,68,0.00,,,0.01,VWS V14.00,2013-06-09 16:41:00,
2013-06-09 12:46:00,88.2,76.8,30.11,SW,233,0.0,0.0,69,0.00,,,0.01,VWS V14.00,2013-06-09 16:46:00,
2013-06-09 12:52:00,88.5,77.9,30.10,WNW,302,0.0,5.0,71,0.00,,,0.01,VWS V14.00,2013-06-09 16:52:00,
2013-06-09 12:57:00,89.2,77.7,30.10,SSW,213,0.0,5.0,69,0.00,,,0.01,VWS V14.00,2013-06-09 16:57:00,
2013-06-09 13:00:00,85.5,76.3,30.11,South,183,0.0,5.0,74,0.00,,,0.01,VWS V14.00,2013-06-09 17:00:00,
2013-06-09 13:02:00,89.3,76.5,30.10,SSE,149,0.0,1.0,66,0.00,,,0.01,VWS V14.00,2013-06-09 17:02:00,
2013-06-09 13:08:00,89.3,76.5,30.10,WSW,244,0.0,2.0,66,0.00,,,0.01,VWS V14.00,2013-06-09 17:08:00,
2013-06-09 13:13:00,89.2,75.9,30.10,SE,130,0.0,2.0,65,0.00,,,0.01,VWS V14.00,2013-06-09 17:13:00,
2013-06-09 13:18:00,88.3,76.0,30.10,SSW,210,1.0,2.0,67,0.00,,,0.01,VWS V14.00,2013-06-09 17:18:00,
2013-06-09 13:23:00,88.0,76.6,30.10,South,176,0.0,2.0,69,0.00,,,0.01,VWS V14.00,2013-06-09 17:23:00,
2013-06-09 13:28:00,88.7,76.3,30.10,SW,225,0.0,7.0,67,0.00,,,0.01,VWS V14.00,2013-06-09 17:28:00,
2013-06-09 13:30:00,87.4,76.4,30.11,South,171,0.0,4.0,70,0.00,,,0.01,VWS V14.00,2013-06-09 17:30:00,
2013-06-09 13:33:00,89.5,76.2,30.09,SW,234,0.0,0.0,65,0.00,,,0.01,VWS V14.00,2013-06-09 17:33:00,
2013-06-09 13:38:00,89.9,76.6,30.09,SSE,161,0.0,3.0,65,0.00,,,0.01,VWS V14.00,2013-06-09 17:38:00,
2013-06-09 13:43:00,89.7,76.4,30.09,South,177,0.0,3.0,65,0.00,,,0.01,VWS V14.00,2013-06-09 17:43:00,
2013-06-09 13:48:00,89.9,76.6,30.09,SW,215,0.0,3.0,65,0.00,,,0.01,VWS V14.00,2013-06-09 17:48:00,
2013-06-09 13:54:00,89.9,77.0,30.08,SW,217,0.0,3.0,66,0.00,,,0.01,VWS V14.00,2013-06-09 17:54:00,
2013-06-09 13:59:00,89.1,76.3,30.08,SW,217,0.0,3.0,66,0.00,,,0.01,VWS V14.00,2013-06-09 17:59:00,
2013-06-09 14:00:00,89.4,77.9,30.10,NE,42,0.0,5.0,69,0.00,,,0.01,VWS V14.00,2013-06-09 18:00:00,
2013-06-09 14:04:00,88.9,75.6,30.08,SW,227,2.0,6.0,65,0.00,,,0.01,VWS V14.00,2013-06-09 18:04:00,
2013-06-09 14:09:00,89.0,76.2,30.08,SSW,209,0.0,6.0,66,0.00,,,0.01,VWS V14.00,2013-06-09 18:09:00,
2013-06-09 14:14:00,88.5,75.2,30.08,SW,215,0.0,6.0,65,0.00,,,0.01,VWS V14.00,2013-06-09 18:14:00,
2013-06-09 14:19:00,88.1,75.8,30.08,WSW,245,0.0,6.0,67,0.00,,,0.01,VWS V14.00,2013-06-09 18:19:00,
2013-06-09 14:24:00,88.7,76.8,30.07,WSW,257,0.0,6.0,68,0.00,,,0.01,VWS V14.00,2013-06-09 18:24:00,
2013-06-09 14:30:00,89.1,75.8,30.08,SSE,157,0.0,6.0,65,0.00,,,0.01,VWS V14.00,2013-06-09 18:30:00,
2013-06-09 14:35:00,89.6,75.8,30.07,SSW,204,0.0,4.0,64,0.00,,,0.01,VWS V14.00,2013-06-09 18:35:00,
2013-06-09 14:40:00,90.2,76.4,30.07,SSW,205,0.0,4.0,64,0.00,,,0.01,VWS V14.00,2013-06-09 18:40:00,
2013-06-09 14:45:00,90.4,75.6,30.07,SE,142,0.0,5.0,62,0.00,,,0.01,VWS V14.00,2013-06-09 18:45:00,
2013-06-09 14:50:00,90.6,75.8,30.06,SSE,167,0.0,5.0,62,0.00,,,0.01,VWS V14.00,2013-06-09 18:50:00,
2013-06-09 14:55:00,91.2,76.4,30.06,SSW,194,0.0,5.0,62,0.00,,,0.01,VWS V14.00,2013-06-09 18:55:00,
2013-06-09 15:00:00,91.4,76.1,30.06,SE,145,0.0,5.0,61,0.00,,,0.01,VWS V14.00,2013-06-09 19:00:00,
2013-06-09 15:05:00,90.5,76.7,30.06,SE,145,0.0,1.0,64,0.00,,,0.01,VWS V14.00,2013-06-09 19:05:00,
2013-06-09 15:11:00,90.1,75.8,30.06,NW,311,0.0,1.0,63,0.00,,,0.01,VWS V14.00,2013-06-09 19:11:00,
2013-06-09 15:16:00,89.8,76.9,30.05,NW,311,0.0,1.0,66,0.00,,,0.01,VWS V14.00,2013-06-09 19:16:00,
2013-06-09 15:21:00,89.0,77.5,30.05,NW,311,0.0,1.0,69,0.00,,,0.01,VWS V14.00,2013-06-09 19:21:00,
2013-06-09 15:26:00,87.7,77.1,30.04,NNW,348,0.0,1.0,71,0.00,,,0.01,VWS V14.00,2013-06-09 19:26:00,
2013-06-09 15:32:00,87.1,77.4,30.04,North,349,0.0,0.0,73,0.00,,,0.01,VWS V14.00,2013-06-09 19:32:00,
2013-06-09 15:37:00,86.5,76.4,30.05,ESE,109,3.0,4.0,72,0.00,,,0.01,VWS V14.00,2013-06-09 19:37:00,
2013-06-09 15:42:00,83.9,75.1,30.05,North,355,2.0,4.0,75,0.01,,,0.02,VWS V14.00,2013-06-09 19:42:00,
2013-06-09 15:47:00,81.6,75.2,30.05,North,355,0.0,4.0,81,0.01,,,0.02,VWS V14.00,2013-06-09 19:47:00,
2013-06-09 15:52:00,80.6,75.3,30.05,North,355,0.0,4.0,84,0.01,,,0.02,VWS V14.00,2013-06-09 19:52:00,
2013-06-09 15:57:00,80.7,76.5,30.05,North,355,0.0,4.0,87,0.02,,,0.03,VWS V14.00,2013-06-09 19:57:00,
2013-06-09 16:00:00,91.1,75.8,30.06,SE,145,0.0,5.0,61,0.00,,,0.01,VWS V14.00,2013-06-09 20:00:00,
2013-06-09 16:03:00,81.2,77.3,30.05,North,355,0.0,0.0,88,0.02,,,0.03,VWS V14.00,2013-06-09 20:03:00,
2013-06-09 16:08:00,82.1,78.5,30.04,North,355,0.0,2.0,89,0.02,,,0.03,VWS V14.00,2013-06-09 20:08:00,
2013-06-09 16:13:00,82.7,78.4,30.04,North,355,0.0,2.0,87,0.02,,,0.03,VWS V14.00,2013-06-09 20:13:00,
2013-06-09 16:18:00,83.4,78.4,30.04,NNE,23,0.0,5.0,85,0.02,,,0.03,VWS V14.00,2013-06-09 20:18:00,
2013-06-09 16:23:00,84.1,78.4,30.04,NNE,14,0.0,5.0,83,0.02,,,0.03,VWS V14.00,2013-06-09 20:23:00,
2013-06-09 16:28:00,84.3,78.2,30.04,NNE,16,0.0,5.0,82,0.02,,,0.03,VWS V14.00,2013-06-09 20:28:00,
2013-06-09 16:30:00,87.1,77.4,30.04,North,349,0.0,1.0,73,0.00,,,0.01,VWS V14.00,2013-06-09 20:30:00,
2013-06-09 16:33:00,83.9,76.7,30.04,North,5,3.0,4.0,79,0.02,,,0.03,VWS V14.00,2013-06-09 20:33:00,
2013-06-09 16:38:00,83.6,76.8,30.04,North,9,0.0,4.0,80,0.02,,,0.03,VWS V14.00,2013-06-09 20:38:00,
2013-06-09 16:44:00,84.0,77.9,30.04,North,9,0.0,4.0,82,0.02,,,0.03,VWS V14.00,2013-06-09 20:44:00,
2013-06-09 16:49:00,84.4,76.8,30.04,North,9,0.0,4.0,78,0.02,,,0.03,VWS V14.00,2013-06-09 20:49:00,
2013-06-09 16:54:00,84.4,75.6,30.04,North,355,0.0,4.0,75,0.02,,,0.03,VWS V14.00,2013-06-09 20:54:00,
2013-06-09 16:59:00,84.3,75.9,30.04,North,5,0.0,4.0,76,0.02,,,0.03,VWS V14.00,2013-06-09 20:59:00,
2013-06-09 17:00:00,81.2,77.3,30.05,North,355,0.0,4.0,88,0.02,,,0.03,VWS V14.00,2013-06-09 21:00:00,
2013-06-09 17:04:00,84.0,75.6,30.04,SE,146,0.0,8.0,76,0.00,,,0.03,VWS V14.00,2013-06-09 21:04:00,
2013-06-09 17:09:00,82.9,75.7,30.04,SE,146,0.0,8.0,79,0.02,,,0.05,VWS V14.00,2013-06-09 21:09:00,
2013-06-09 17:14:00,81.5,75.5,30.04,SE,146,0.0,8.0,82,0.03,,,0.06,VWS V14.00,2013-06-09 21:14:00,
2013-06-09 17:19:00,80.5,75.2,30.03,ESE,121,0.0,8.0,84,0.03,,,0.06,VWS V14.00,2013-06-09 21:19:00,
2013-06-09 17:25:00,80.0,75.4,30.03,ESE,121,0.0,8.0,86,0.03,,,0.06,VWS V14.00,2013-06-09 21:25:00,
2013-06-09 17:30:00,79.9,76.0,30.03,ESE,121,0.0,8.0,88,0.03,,,0.06,VWS V14.00,2013-06-09 21:30:00,
2013-06-09 17:35:00,80.2,76.7,30.03,ESE,121,0.0,0.0,89,0.03,,,0.06,VWS V14.00,2013-06-09 21:35:00,
2013-06-09 17:40:00,80.3,76.8,30.03,ESE,121,0.0,0.0,89,0.03,,,0.06,VWS V14.00,2013-06-09 21:40:00,
2013-06-09 17:45:00,80.6,76.4,30.03,WSW,246,0.0,3.0,87,0.03,,,0.06,VWS V14.00,2013-06-09 21:45:00,
2013-06-09 17:50:00,81.1,76.5,30.02,West,279,0.0,3.0,86,0.03,,,0.06,VWS V14.00,2013-06-09 21:50:00,
2013-06-09 17:55:00,81.4,76.1,30.03,West,279,0.0,3.0,84,0.03,,,0.06,VWS V14.00,2013-06-09 21:55:00,
2013-06-09 18:00:00,81.5,76.2,30.03,WSW,246,0.0,3.0,84,0.03,,,0.06,VWS V14.00,2013-06-09 22:00:00,
2013-06-09 18:05:00,81.2,75.2,30.03,NNE,17,0.0,2.0,82,0.03,,,0.06,VWS V14.00,2013-06-09 22:05:00,
2013-06-09 18:11:00,81.0,75.3,30.03,NNE,17,0.0,2.0,83,0.03,,,0.06,VWS V14.00,2013-06-09 22:11:00,
2013-06-09 18:16:00,80.8,75.2,30.03,NNE,17,0.0,2.0,83,0.03,,,0.06,VWS V14.00,2013-06-09 22:16:00,
2013-06-09 18:21:00,80.7,75.1,30.03,NW,326,0.0,2.0,83,0.03,,,0.06,VWS V14.00,2013-06-09 22:21:00,
2013-06-09 18:26:00,80.9,75.3,30.03,SSW,200,0.0,2.0,83,0.03,,,0.06,VWS V14.00,2013-06-09 22:26:00,
2013-06-09 18:30:00,80.0,76.1,30.03,ESE,121,0.0,8.0,88,0.03,,,0.06,VWS V14.00,2013-06-09 22:30:00,
2013-06-09 18:31:00,81.0,75.7,30.03,South,177,0.0,2.0,84,0.03,,,0.06,VWS V14.00,2013-06-09 22:31:00,
2013-06-09 18:36:00,81.1,75.8,30.03,South,178,0.0,0.0,84,0.00,,,0.06,VWS V14.00,2013-06-09 22:36:00,
2013-06-09 18:41:00,81.2,75.9,30.03,South,185,0.0,1.0,84,0.00,,,0.06,VWS V14.00,2013-06-09 22:41:00,
2013-06-09 18:47:00,81.2,75.9,30.04,South,185,0.0,1.0,84,0.00,,,0.06,VWS V14.00,2013-06-09 22:47:00,
2013-06-09 18:52:00,81.2,75.6,30.04,SW,236,0.0,1.0,83,0.00,,,0.06,VWS V14.00,2013-06-09 22:52:00,
2013-06-09 18:57:00,81.2,75.6,30.05,South,178,0.0,3.0,83,0.00,,,0.06,VWS V14.00,2013-06-09 22:57:00,
2013-06-09 19:00:00,81.4,76.1,30.03,WSW,246,0.0,3.0,84,0.03,,,0.06,VWS V14.00,2013-06-09 23:00:00,
2013-06-09 19:02:00,81.0,75.0,30.05,SSW,210,0.0,0.0,82,0.00,,,0.06,VWS V14.00,2013-06-09 23:02:00,
2013-06-09 19:07:00,80.9,74.5,30.05,NNW,334,0.0,4.0,81,0.00,,,0.06,VWS V14.00,2013-06-09 23:07:00,
2013-06-09 19:12:00,80.8,74.1,30.05,NNW,332,0.0,4.0,80,0.00,,,0.06,VWS V14.00,2013-06-09 23:12:00,
2013-06-09 19:17:00,80.7,73.6,30.05,NNW,332,0.0,4.0,79,0.00,,,0.06,VWS V14.00,2013-06-09 23:17:00,
2013-06-09 19:23:00,80.5,73.0,30.05,West,277,0.0,4.0,78,0.00,,,0.06,VWS V14.00,2013-06-09 23:23:00,
2013-06-09 19:28:00,80.3,72.4,30.06,West,278,0.0,4.0,77,0.00,,,0.06,VWS V14.00,2013-06-09 23:28:00,
2013-06-09 19:30:00,81.0,75.7,30.03,South,176,0.0,2.0,84,0.03,,,0.06,VWS V14.00,2013-06-09 23:30:00,
2013-06-09 19:33:00,80.1,71.9,30.06,West,277,0.0,0.0,76,0.00,,,0.06,VWS V14.00,2013-06-09 23:33:00,
2013-06-09 19:38:00,80.0,71.4,30.07,West,278,0.0,0.0,75,0.00,,,0.06,VWS V14.00,2013-06-09 23:38:00,
2013-06-09 19:43:00,79.9,70.5,30.07,West,277,0.0,0.0,73,0.00,,,0.06,VWS V14.00,2013-06-09 23:43:00,
2013-06-09 19:48:00,79.8,70.0,30.07,West,278,0.0,0.0,72,0.00,,,0.06,VWS V14.00,2013-06-09 23:48:00,
2013-06-09 19:53:00,79.8,70.4,30.07,West,277,0.0,0.0,73,0.00,,,0.06,VWS V14.00,2013-06-09 23:53:00,
2013-06-09 19:58:00,79.7,70.3,30.08,West,278,0.0,0.0,73,0.00,,,0.06,VWS V14.00,2013-06-09 23:58:00,
2013-06-09 20:00:00,81.0,75.0,30.05,SSW,210,0.0,3.0,82,0.00,,,0.06,VWS V14.00,2013-06-10 00:00:00,
2013-06-09 20:03:00,79.6,70.2,30.08,West,278,0.0,0.0,73,0.00,,,0.06,VWS V14.00,2013-06-10 00:03:00,
2013-06-09 20:09:00,79.6,70.2,30.08,West,278,0.0,0.0,73,0.00,,,0.06,VWS V14.00,2013-06-10 00:09:00,
2013-06-09 20:14:00,79.4,70.8,30.08,NNW,338,0.0,1.0,75,0.00,,,0.06,VWS V14.00,2013-06-10 00:14:00,
2013-06-09 20:19:00,79.3,71.1,30.08,NNW,338,0.0,1.0,76,0.00,,,0.06,VWS V14.00,2013-06-10 00:19:00,
2013-06-09 20:24:00,79.1,71.7,30.08,NNW,338,0.0,1.0,78,0.00,,,0.06,VWS V14.00,2013-06-10 00:24:00,
2013-06-09 20:29:00,79.0,71.9,30.08,NNW,338,0.0,1.0,79,0.00,,,0.06,VWS V14.00,2013-06-10 00:29:00,
2013-06-09 20:30:00,80.2,72.3,30.06,West,277,0.0,4.0,77,0.00,,,0.06,VWS V14.00,2013-06-10 00:30:00,
2013-06-09 20:34:00,78.8,71.7,30.07,NNW,338,0.0,0.0,79,0.00,,,0.06,VWS V14.00,2013-06-10 00:34:00,
2013-06-09 20:39:00,78.7,71.6,30.07,NNW,338,0.0,0.0,79,0.00,,,0.06,VWS V14.00,2013-06-10 00:39:00,
2013-06-09 20:44:00,78.7,72.0,30.07,NNW,338,0.0,0.0,80,0.00,,,0.06,VWS V14.00,2013-06-10 00:44:00,
2013-06-09 20:49:00,78.7,72.0,30.07,NNW,338,0.0,0.0,80,0.00,,,0.06,VWS V14.00,2013-06-10 00:49:00,
2013-06-09 20:54:00,78.7,72.0,30.07,NNW,337,0.0,0.0,80,0.00,,,0.06,VWS V14.00,2013-06-10 00:54:00,
2013-06-09 21:00:00,78.6,72.3,30.07,NNW,338,0.0,0.0,81,0.00,,,0.06,VWS V14.00,2013-06-10 01:00:00,
2013-06-09 21:05:00,78.7,72.4,30.08,NNW,338,0.0,0.0,81,0.00,,,0.06,VWS V14.00,2013-06-10 01:05:00,
2013-06-09 21:10:00,78.7,72.4,30.08,NNW,337,0.0,0.0,81,0.00,,,0.06,VWS V14.00,2013-06-10 01:10:00,
2013-06-09 21:15:00,78.7,72.8,30.08,NNW,338,0.0,0.0,82,0.00,,,0.06,VWS V14.00,2013-06-10 01:15:00,
2013-06-09 21:20:00,78.7,72.8,30.08,NNW,338,0.0,1.0,82,0.00,,,0.06,VWS V14.00,2013-06-10 01:20:00,
2013-06-09 21:25:00,78.7,72.8,30.08,NNW,336,0.0,1.0,82,0.00,,,0.06,VWS V14.00,2013-06-10 01:25:00,
2013-06-09 21:30:00,78.7,72.8,30.08,NNW,336,0.0,1.0,82,0.00,,,0.06,VWS V14.00,2013-06-10 01:30:00,
2013-06-09 21:35:00,78.7,73.1,30.08,NNW,336,0.0,0.0,83,0.00,,,0.06,VWS V14.00,2013-06-10 01:35:00,
2013-06-09 21:40:00,78.7,73.1,30.08,NNW,336,0.0,0.0,83,0.00,,,0.06,VWS V14.00,2013-06-10 01:40:00,
2013-06-09 21:45:00,78.5,73.3,30.08,NNW,336,0.0,0.0,84,0.00,,,0.06,VWS V14.00,2013-06-10 01:45:00,
2013-06-09 21:51:00,78.4,73.2,30.08,NNW,336,0.0,0.0,84,0.00,,,0.06,VWS V14.00,2013-06-10 01:51:00,
2013-06-09 21:56:00,78.4,73.2,30.08,NNW,336,0.0,0.0,84,0.00,,,0.06,VWS V14.00,2013-06-10 01:56:00,
2013-06-09 22:00:00,78.6,72.3,30.07,NNW,338,0.0,0.0,81,0.00,,,0.06,VWS V14.00,2013-06-10 02:00:00,
2013-06-09 22:01:00,78.3,73.1,30.08,NNW,336,0.0,0.0,84,0.00,,,0.06,VWS V14.00,2013-06-10 02:01:00,
2013-06-09 22:06:00,78.4,73.2,30.08,NNW,336,0.0,0.0,84,0.00,,,0.06,VWS V14.00,2013-06-10 02:06:00,
2013-06-09 22:11:00,78.4,73.5,30.08,NNW,336,0.0,1.0,85,0.00,,,0.06,VWS V14.00,2013-06-10 02:11:00,
2013-06-09 22:16:00,78.4,73.5,30.08,NNW,336,0.0,1.0,85,0.00,,,0.06,VWS V14.00,2013-06-10 02:16:00,
2013-06-09 22:21:00,78.3,73.4,30.08,NNW,336,0.0,1.0,85,0.00,,,0.06,VWS V14.00,2013-06-10 02:21:00,
2013-06-09 22:26:00,78.3,73.4,30.08,NNW,336,0.0,1.0,85,0.00,,,0.06,VWS V14.00,2013-06-10 02:26:00,
2013-06-09 22:30:00,78.7,73.1,30.08,NNW,336,0.0,1.0,83,0.00,,,0.06,VWS V14.00,2013-06-10 02:30:00,
2013-06-09 22:31:00,78.2,73.3,30.08,South,191,0.0,4.0,85,0.00,,,0.06,VWS V14.00,2013-06-10 02:31:00,
2013-06-09 22:37:00,78.2,73.3,30.08,South,191,0.0,0.0,85,0.00,,,0.06,VWS V14.00,2013-06-10 02:37:00,
2013-06-09 22:42:00,78.2,73.3,30.08,South,191,0.0,0.0,85,0.00,,,0.06,VWS V14.00,2013-06-10 02:42:00,
2013-06-09 22:47:00,78.2,73.3,30.08,South,191,0.0,0.0,85,0.00,,,0.06,VWS V14.00,2013-06-10 02:47:00,
2013-06-09 22:52:00,78.1,73.2,30.08,South,191,0.0,0.0,85,0.00,,,0.06,VWS V14.00,2013-06-10 02:52:00,
2013-06-09 22:57:00,78.1,73.2,30.08,South,191,0.0,0.0,85,0.00,,,0.06,VWS V14.00,2013-06-10 02:57:00,
2013-06-09 23:02:00,78.1,73.6,30.08,SW,234,0.0,0.0,86,0.00,,,0.06,VWS V14.00,2013-06-10 03:02:00,
2013-06-09 23:07:00,78.0,73.5,30.08,SW,234,0.0,0.0,86,0.00,,,0.06,VWS V14.00,2013-06-10 03:07:00,
2013-06-09 23:12:00,78.0,73.5,30.09,SW,234,0.0,0.0,86,0.00,,,0.06,VWS V14.00,2013-06-10 03:12:00,
2013-06-09 23:17:00,77.9,73.4,30.09,SW,233,0.0,0.0,86,0.00,,,0.06,VWS V14.00,2013-06-10 03:17:00,
2013-06-09 23:22:00,77.9,73.4,30.09,SW,234,0.0,0.0,86,0.00,,,0.06,VWS V14.00,2013-06-10 03:22:00,
2013-06-09 23:27:00,77.9,73.4,30.09,SW,233,0.0,0.0,86,0.00,,,0.06,VWS V14.00,2013-06-10 03:27:00,
2013-06-09 23:30:00,78.2,73.3,30.08,South,191,0.0,4.0,85,0.00,,,0.06,VWS V14.00,2013-06-10 03:30:00,
2013-06-09 23:33:00,77.8,73.3,30.09,SW,234,0.0,0.0,86,0.00,,,0.06,VWS V14.00,2013-06-10 03:33:00,
2013-06-09 23:38:00,77.8,73.3,30.09,SSE,156,0.0,0.0,86,0.00,,,0.06,VWS V14.00,2013-06-10 03:38:00,
2013-06-09 23:43:00,77.8,73.3,30.09,SSE,156,0.0,0.0,86,0.00,,,0.06,VWS V14.00,2013-06-10 03:43:00,
2013-06-09 23:48:00,77.9,73.4,30.09,SSE,156,0.0,0.0,86,0.00,,,0.06,VWS V14.00,2013-06-10 03:48:00,
2013-06-09 23:53:00,77.9,73.4,30.09,SSE,157,0.0,0.0,86,0.00,,,0.06,VWS V14.00,2013-06-10 03:53:00,
2013-06-09 23:58:00,77.9,73.4,30.09,SSW,192,0.0,4.0,86,0.00,,,0.06,VWS V14.00,2013-06-10 03:58:00,